Regional Weather Roundup
Issued by NWS Charleston, SC

Current Version | Previous Version | Text Only | Print | Product List | Glossary On
Versions: 1 2 3 4 5 6 7 8 9 10 11 12 13 14 15 16 17 18 19 20 21 22 23 24 25 26 27 28 29 30 31 32 33 34 35 36 37 38 39 40 41 42 43 44 45 46 47 48 49 50
000
ASUS42 KCHS 271727
RWRCHS

REGIONAL WEATHER ROUNDUP
NATIONAL WEATHER SERVICE CHARLESTON SC
100 PM EDT THU APR 27 2017

NOTE: "FAIR" INDICATES FEW OR NO CLOUDS BELOW 12,000 FEET WITH NO
SIGNIFICANT WEATHER AND/OR OBSTRUCTIONS TO VISIBILITY.

NOT ALL STATIONS ARE QUALITY CONTROLLED. USE DATA WITH CAUTION...
ESPECIALLY DEWPOINT OBSERVATIONS.

SCZ027-030-031-034>040-042>050-271800-
...SOUTHEAST SOUTH CAROLINA...

CITY           SKY/WX    TMP DP  RH WIND       PRES   REMARKS
N CHARLESTON   PTSUNNY   82  61  48 S22G28    29.93F
WATERFRONT PRK   N/A     77  67  71 S13       29.91F
JOHNS ISLAND   PTSUNNY   81  70  69 S18       29.93S
PINOPOLIS        N/A     81  64  57 VRB3      29.85F
MONCKS CORNER  FAIR      81  59  47 S14       29.91F
SUMMERVILLE    FAIR      81  63  54 S5G17     29.92F
BEAUFORT MCAS  SUNNY     83  66  56 S12G28    29.91F
BEAUFORT ARPT  FAIR      79  68  69 S18G24    29.91F
HILTON HEAD IS MOSUNNY   79  72  78 S13G23    29.93F
WALTERBORO     MOSUNNY   82  64  54 SW14G23   29.91F
ALLENDALE      FAIR      82  66  57 S10G18    29.87F

...SOUTHERN MIDLANDS AND PEE DEE...

CITY           SKY/WX    TMP DP  RH WIND       PRES   REMARKS
GEORGETOWN     FAIR      81  61  50 S16       29.93F
KINGSTREE      CLOUDY    77  63  61 S7        29.92S
ORANGEBURG     PTSUNNY   79  64  60 SW12      29.90F
BARNWELL         N/A     81  68  65 S10G17    29.88F
AIKEN          CLOUDY    73  64  73 S12       29.92F
MANNING        PTSUNNY   77  63  61 SW18      29.92S
COLUMBIA       PTSUNNY   78  65  63 S9        29.88F
SUMTER         PTSUNNY   76  63  63 S12       29.89S
FLORENCE       PTSUNNY   80  62  54 SW14      29.91S
MYRTLE BEACH   MOSUNNY   77  68  73 S17       29.93F
N MYRTLE BEACH SUNNY     76  69  79 S18       29.93S

$$

GAZ063-065-086>088-099>101-113>116-118-119-134>141-150-271800-
...SOUTHEAST GEORGIA...

CITY           SKY/WX    TMP DP  RH WIND       PRES   REMARKS
SAVANNAH ARPT  MOSUNNY   88  62  41 S20       29.89F
HUNTER AAF     SUNNY     84  68  58 S14G21    29.87F
FORT STEWART   SUNNY     86  61  42 S12G20    29.86F
STATESBORO     MOSUNNY   86  62  45 S16G23    29.87F
SYLVANIA       MOSUNNY  N/A N/A N/A S8        29.89F
CLAXTON        FAIR      86  68  54 SE12      29.88F

...CSRA...CENTRAL AND FAR SOUTHEAST GEORGIA...

CITY           SKY/WX    TMP DP  RH WIND       PRES   REMARKS
THOMSON        CLOUDY    76  66  71 W7        29.90S
AUGUSTA-BUSH   PTSUNNY   79  68  69 S10G18    29.87F
AUGUSTA-DANIEL CLOUDY    76  65  68 S16       29.88F
SWAINSBORO     FAIR      84  64  51 S12G17    29.87F
VIDALIA        MOSUNNY   86  64  48 S14G22    29.87F
EASTMAN        FAIR      86  51  30 SW12G18   29.88F
HAZLEHURST     FAIR      86  67  52 S12G29    29.86F
ALMA           MOSUNNY   86  66  51 SW12G23   29.88F
WAYCROSS       MOSUNNY   92  68  45 SW18G25   29.89S HX  95
JESUP          FAIR      88  55  33 SW9G22    29.88F
BAXLEY         FAIR      88  70  55 SW16G23   29.88F HX  92
BRUNSWICK      SUNNY     86  68  54 SE16      29.91F
SAINT SIMONS   SUNNY     81  67  62 S13       29.92F

$$

SCZ027-028-034-036>038-045-046-048>050-GAZ119-141-271800-
...LAKE AND SUPPLEMENTAL COASTAL OBSERVATIONS...

STATION/POSITION TIME  TEMP    WIND        PRES    WAVE   SWELL
                       AIR SEA DIR/SP/G            HT/PER HT/PER/DIR
                 (UTC) (F)     (DEG/KT/KT) (MB)    (FT/S) (FT/S/D)
WINYAH BAY       1630   77     210/ 14     1013.0F
LAKE MURRAY      1630   73     180/  9/ 11 1011.9S
ACE BASIN NERRS  1645   80     170/  2     1013.0F
FORT PULASKI     1700   78 74  200/ 11/ 19 1012.9
SAPELO ISLAND    1630   82     190/ 15     1013.0F

$$

ANZ835-935-AMZ111-154-330-350-352-354-370-450-454-472-271800-
...C-MAN AND BUOY OBSERVATIONS...

STATION/POSITION TIME  TEMP    WIND        PRES    WAVE   SWELL
                       AIR SEA DIR/SP/G            HT/PER HT/PER/DIR
                 (UTC) (F)     (DEG/KT/KT) (MB)    (FT/S) (FT/S/D)
BUOY 41004       1700   75 73  160/  6/  8 1013.9
BUOY 41008       1650   73 73  170/ 12/ 16 1013.3F   3/ 9   2/120/ 9
FOLLY BEACH CMAN 1700   75     190/  7/  8 1014.5F
CAPERS NEARSHORE 1708   75 73  190/  6/  8 1013.8F
FRIPP NEARSHORE  1708   73 74  190/ 10/ 14 1013.0F


STATION/POSITION TIME  TEMP    WIND        PRES    WAVE   SWELL
                       AIR SEA DIR/SP/G            HT/PER HT/PER/DIR
                 (UTC) (F)     (DEG/KT/KT) (MB)    (FT/S) (FT/S/D)
5E ST. MARYS GA  1630      74                N/A     3/10   2/ 90/14
FRYING PAN BUOY  1700   74 74  200/  8/ 10 1014.3
BUOY 41025       1650   77 77  210/ 14/ 17 1014.5F   5/ 9   3/140/ 9
CAPE LOOKOUT NC  1700   75     220/  8/ 11 1013.9F
BUOY 41002       1650   74 75  180/ 16/ 17 1018.0F   5/ 8   3/110/ 8
BUOY 41010       1710   77 78  170/ 14/ 16 1016.3
ST AUGUSTINE FL  1700   77 76  140/ 15/ 16 1014.6F


$$




USA.gov is the U.S. government's official web portal to all federal, state and local government web resources and services.